sat.trackr.live / text

‹ back to catalog

KUIPER-00439

NORAD 68941 · 2026-098Y

PAYLOAD ACTIVE UNKNOWN

§ Identity

Operator
Country
US
Launch date
2026-04-30
Launch site
FRGUI
Launch vehicle
Mass (kg)
RCS (m²)

External: N2YO · Heavens-Above · Gunter

§ Orbital elements

Epoch: 2026-05-25T01:30:52.556256Z

Period
93.89 min
Inclination
51.8763°
Eccentricity
0.0006230
Mean motion
15.33687557 rev/d
Perigee alt
460.6 km
Apogee alt
469.1 km
Semi-major
6,843.0 km
B*
-1.5735e-3
RAAN
179.2719°
Arg perigee
68.5283°
Mean anomaly
291.6366°
Rev number
379

§ Raw data

KUIPER-004391 68941U 26098Y   26145.06310829 -.00052080  00000+0 -15735-2 0  99992 68941  51.8763 179.2719 0006230  68.5283 291.6366 15.33687557  3791

JSON: /api/v1/satellites/68941 · /tle

For live sub-satellite position, see the globe view (requires WebGL).

§ Visibility from observer

Set your observer location to see the next 7 days of passes ≥ 10°. The values pass through the URL so the page stays shareable.

No JS? Fill the form by hand. The geolocation button needs JavaScript.